Theta_e
302 301 302 304 302 305 302 302 302 302 302 300 301 300 300 299 299 300 301 301 300 301 301 301 300 301 301 301 302 303 303 305 308 310 313 312 311 310 308 307 307 307 309
302 300 301 301 302 303 303 303 303 302 299 298 297 297 298 298 299 299 299 301 300 300 300 300 300 300 298 299 301 302 302 307 310 307 307 308 309 308 307 304 305 307 308
301 300 300 303 303 303 303 304 304 303 302 299 299 298 298 296 297 299 300 301 300 300 300 299 299 297 297 299 299 302 302 306 305 303 302 305 305 305 305 304 303 305 309
301 300 299 300 302 303 304 304 304 304 303 302 300 300 300 300 300 301 300 301 302 301 301 302 301 298 297 300 300 301 302 302 303 301 300 300 301 302 303 300 300 302 303
300 300 300 303 304 304 304 303 303 304 304 304 303 301 301 301 301 302 301 301 301 302 302 301 302 305 307 305 303 302 301 300 300 299 298 299 299 299 298 299 298 299 301
300 301 301 302 303 301 301 302 300 300 302 303 303 302 301 301 301 303 305 301 300 299 297 298 298 303 302 305 306 307 305 300 298 298 298 296 296 296 298 298 297 296 294
300 303 302 302 302 304 302 301 299 297 300 301 302 302 301 301 301 301 305 302 298 294 294 295 298 301 302 299 300 301 303 306 304 301 298 295 294 295 299 298 296 296 296
300 301 302 302 301 301 300 299 299 300 302 302 303 303 302 303 301 300 303 303 301 298 297 295 295 299 301 303 301 296 297 298 298 298 296 296 298 299 300 300 300 299 298
299 299 301 301 300 300 298 298 302 301 299 300 302 303 303 302 300 299 301 302 302 302 302 301 298 296 299 300 300 299 298 297 302 303 302 301 300 301 302 300 298 299 296
299 300 300 301 300 299 298 297 297 299 298 299 301 302 304 301 299 299 301 302 300 300 301 301 301 299 298 298 298 298 298 298 296 298 300 300 300 301 302 300 299 300 297
300 301 300 301 301 300 298 297 297 297 297 297 297 300 302 302 301 299 299 302 301 300 300 300 300 298 297 297 298 299 297 299 299 298 297 297 297 298 297 298 298 297 295
300 299 299 300 302 301 298 297 297 296 295 295 296 300 301 300 300 299 298 299 302 300 299 301 300 297 297 297 298 297 298 299 297 297 296 294 298 298 297 294 295 298 299
299 298 298 299 300 299 298 296 296 296 294 294 294 298 299 300 299 298 297 298 300 302 302 300 298 297 298 299 298 298 299 298 297 293 293 297 298 300 300 297 298 297 297
298 297 297 297 298 299 301 300 298 298 298 293 294 294 298 299 298 297 299 296 299 299 302 302 301 299 299 300 300 299 299 299 298 297 297 298 299 298 298 298 297 297 296
298 298 296 297 296 299 301 300 301 299 297 297 295 296 296 298 297 294 294 297 296 298 300 302 301 299 299 299 299 300 299 299 298 298 297 297 297 297 297 298 297 296 294
297 297 296 297 297 301 302 302 299 298 297 295 294 294 297 296 294 294 294 294 294 294 298 299 299 299 299 298 299 299 300 299 298 298 298 297 296 296 296 297 297 296 295
297 297 301 301 301 301 301 303 302 303 298 297 296 295 293 294 294 293 294 294 294 297 297 297 297 296 297 298 300 300 299 300 300 297 297 297 297 297 296 296 296 296 295
297 299 302 302 302 301 303 303 303 302 300 300 299 296 294 294 294 293 294 297 298 298 298 297 297 298 294 296 298 299 300 301 300 300 298 298 298 297 297 296 297 296 295
299 298 300 302 302 301 303 304 302 299 299 299 298 297 296 295 295 295 295 299 297 297 297 297 298 298 298 295 295 298 298 298 298 300 301 299 299 297 297 297 296 291 293
302 299 298 300 301 301 303 302 301 300 299 299 297 297 297 296 298 298 298 298 298 298 298 297 298 298 298 294 293 296 295 295 296 297 298 300 302 301 299 297 297 297 297
304 302 294 301 298 301 300 299 300 300 298 297 297 297 287 297 297 297 297 297 298 298 298 298 298 298 298 297 292 294 293 292 293 294 296 298 301 298 299 299 298 298 297
299 302 301 297 297 299 299 299 298 298 298 297 297 297 290 298 297 297 297 298 298 299 299 298 298 298 297 296 295 291 291 290 289 290 293 296 297 298 299 299 298 297 297
298 302 300 297 297 294 297 299 298 297 297 297 297 297 297 297 297 297 297 298 298 299 299 298 298 298 297 293 294 293 290 288 287 287 291 293 293 297 296 295 295 294 293
298 299 297 296 296 295 295 296 296 293 295 297 297 297 296 297 297 298 297 297 297 298 298 297 297 297 295 292 290 291 290 287 287 286 289 289 292 294 297 297 296 296 296
299 299 297 296 296 294 295 295 295 295 295 297 297 297 297 298 297 297 297 297 296 297 298 297 297 294 292 289 287 287 286 285 286 285 288 290 293 296 299 302 302 301 300
299 301 300 298 295 295 294 294 294 294 295 297 297 296 297 297 297 297 296 293 291 292 295 294 293 292 289 287 285 284 285 285 285 285 286 291 295 300 301 302 302 301 300
Wind_Speed
8 7 7 7 7 6 7 8 9 10 10 9 9 8 7 9 9 8 7 7 8 7 8 7 8 6 5 5 4 4 3 1 2 2 3 5 5 8 7 7 6 8 8
6 6 6 6 7 6 7 8 9 10 8 7 7 7 8 9 9 8 8 6 6 7 7 8 9 7 8 7 6 6 6 4 2 9 4 2 6 6 6 8 7 7 8
6 6 7 6 7 6 7 8 7 7 7 7 8 9 9 8 8 9 8 7 5 5 6 8 7 8 9 7 6 7 7 6 8 7 6 5 5 4 6 7 6 6 7
6 6 6 6 8 8 7 8 7 7 8 9 8 8 9 8 8 8 9 9 7 5 6 7 8 7 7 9 8 8 7 7 8 8 6 5 4 4 5 5 5 4 5
5 6 6 6 5 6 8 8 9 8 8 9 9 9 9 7 7 8 8 8 8 9 8 9 8 12 15 12 5 7 7 6 6 6 5 4 3 3 4 2 4 3 3
5 5 6 6 7 7 7 7 6 8 9 9 10 8 9 7 15 13 8 6 8 7 8 8 7 12 11 12 15 17 11 5 5 2 3 4 2 2 2 2 3 3 3
6 5 6 6 6 8 7 7 8 7 7 9 9 9 9 11 16 12 12 4 6 6 6 7 8 7 8 6 12 15 15 15 11 4 6 3 4 2 2 3 3 3 3
5 5 6 6 6 6 6 6 7 6 8 8 9 9 8 10 18 14 10 5 4 5 6 6 7 9 10 6 6 7 8 8 7 6 6 3 3 2 4 3 2 5 2
5 5 6 5 5 5 6 6 5 6 7 7 7 9 10 10 14 14 10 6 7 7 7 9 8 8 12 11 7 7 6 6 7 10 10 10 13 14 10 3 3 3 2
5 5 5 5 5 5 5 5 4 4 5 5 7 6 7 7 14 15 11 6 7 6 7 8 12 9 11 10 6 5 7 5 5 5 4 7 9 11 15 8 3 3 3
4 6 6 6 4 5 4 3 4 5 6 7 7 6 6 6 7 10 11 7 4 4 5 5 5 10 10 10 8 5 4 3 5 5 4 4 5 7 6 7 7 4 3
4 5 6 5 4 4 6 5 5 6 6 7 7 8 6 6 8 9 9 8 9 5 5 4 4 9 10 10 6 7 8 5 4 4 5 4 5 5 5 4 5 5 5
4 5 5 4 5 4 4 5 4 5 5 5 5 6 8 7 6 11 10 9 6 4 3 6 9 9 8 6 9 8 6 4 3 3 3 3 2 3 3 3 4 4 6
4 3 4 4 5 4 2 2 3 3 4 4 5 5 6 7 7 7 6 6 7 5 5 5 5 6 7 5 4 4 3 3 3 3 3 2 2 2 4 3 4 4 5
3 3 4 3 3 4 3 1 2 1 2 2 3 3 4 6 5 5 4 6 5 6 3 3 5 4 5 5 4 4 3 3 3 2 3 3 3 3 3 2 3 4 4
2 3 3 2 4 3 3 2 7 7 6 4 6 5 3 5 8 12 11 11 13 11 5 5 6 5 5 5 4 3 3 4 3 3 3 2 2 3 2 2 2 2 2
2 2 4 3 3 3 3 3 3 4 3 7 5 9 1 7 9 11 11 9 12 9 6 5 4 5 5 5 5 4 3 2 1 2 2 2 2 2 2 1 1 1 1
2 5 2 4 3 3 2 2 3 3 3 4 6 3 8 8 9 9 10 8 6 6 5 5 5 4 4 4 5 5 4 4 3 0 1 2 2 2 1 1 1 1 1
2 3 4 1 3 3 2 2 2 2 2 2 3 3 6 9 5 8 9 3 3 4 4 5 4 4 4 5 4 5 5 4 4 3 1 3 3 2 1 2 2 2 2
3 5 4 4 3 2 2 2 1 2 2 1 2 3 4 4 4 3 3 3 3 3 4 4 4 4 3 4 4 4 4 5 5 4 4 4 2 3 3 3 3 2 3
4 3 3 2 2 2 2 4 3 0 1 2 2 2 2 2 3 3 3 3 3 3 4 3 4 4 3 4 4 4 5 5 5 4 4 5 4 2 3 3 3 3 3
4 3 2 1 1 3 3 3 3 3 4 3 3 2 5 3 3 2 3 3 3 2 3 3 3 3 3 4 4 4 4 4 5 4 4 5 4 1 1 2 3 3 3
2 4 3 2 2 3 2 2 2 3 3 4 3 2 3 3 2 2 3 3 2 3 3 3 3 3 3 4 4 4 4 5 4 4 5 5 4 3 2 3 3 3 3
4 5 5 3 2 2 2 1 1 3 3 2 3 3 3 3 3 4 4 4 3 1 1 2 3 4 4 5 4 5 4 5 5 5 7 4 5 4 3 3 4 6 5
4 2 3 4 4 2 1 1 2 2 2 3 3 3 4 4 4 4 4 4 4 1 2 3 4 5 7 8 7 10 9 8 7 7 6 4 7 6 4 3 4 5 5
3 2 4 3 2 2 2 2 2 3 3 2 3 3 4 4 4 4 4 5 5 5 6 4 5 8 9 6 8 11 10 11 9 9 6 5 4 5 4 5 5 2 4
Wind_Direction
20 7 11 10 355 353 359 360 358 355 354 355 360 0 352 359 353 354 350 352 9 9 14 16 9 354 343 339 335 333 321 246 216 99 84 123 96 93 80 71 57 55 60
8 4 5 1 352 354 356 358 357 10 0 353 356 0 359 358 355 356 354 350 351 4 9 24 21 9 2 349 2 337 351 329 114 120 50 53 93 100 95 88 76 61 69
5 358 359 2 355 350 358 355 360 358 345 356 357 357 353 351 352 353 355 354 355 353 351 8 4 9 9 359 358 17 360 47 67 79 83 31 61 66 95 69 76 71 85
13 355 360 4 5 2 3 2 356 353 347 352 351 359 356 349 352 351 357 0 360 5 358 4 10 4 7 1 4 19 11 37 58 71 66 64 49 30 68 97 74 38 64
23 6 9 356 349 6 8 14 7 4 360 358 0 4 2 3 358 356 3 1 4 10 9 8 6 17 25 25 26 23 39 40 60 74 70 79 38 47 104 94 104 99 54
22 12 359 357 357 354 354 12 4 0 5 8 9 1 4 1 358 3 16 14 14 19 10 356 349 8 9 27 45 54 57 68 54 75 79 85 49 61 60 91 112 99 92
16 9 10 360 3 11 14 8 358 355 358 12 8 6 6 12 7 10 21 35 32 17 13 3 359 3 14 39 43 47 46 53 65 65 77 47 55 360 82 54 65 91 95
27 8 360 5 20 14 13 11 354 5 1 348 355 1 2 12 11 6 16 18 24 13 16 7 7 12 21 41 54 46 37 44 42 64 68 42 74 50 94 123 100 113 95
21 9 356 6 29 27 26 6 357 8 1 1 2 10 18 20 9 14 7 17 21 12 3 14 22 19 14 26 46 51 53 41 45 61 67 58 50 48 42 77 58 101 55
360 355 354 351 13 18 19 6 354 349 345 352 1 0 8 16 17 23 21 16 16 12 14 13 10 21 23 35 51 37 67 41 55 48 33 41 43 43 43 47 10 114 115
343 353 355 355 0 26 25 18 19 2 356 354 352 354 354 358 6 14 16 22 6 1 18 9 6 14 33 29 31 53 69 40 50 72 60 45 45 52 41 40 33 40 82
343 353 353 359 10 24 38 15 16 15 7 355 353 9 10 350 357 353 9 23 13 25 1 353 0 16 32 32 38 49 53 57 51 52 56 38 48 57 49 46 42 43 52
355 354 346 2 18 14 42 27 25 20 19 356 360 1 360 2 1 353 359 7 8 39 13 12 6 10 16 30 36 44 47 52 54 66 64 51 45 95 89 68 66 64 68
347 350 332 349 4 344 22 51 29 19 5 8 2 355 342 358 355 346 358 358 15 32 6 9 3 7 21 19 24 22 30 48 54 56 55 48 36 52 63 42 45 36 46
7 347 338 336 330 305 268 307 321 236 206 323 304 310 334 353 333 310 335 17 7 2 357 0 19 8 11 8 8 16 22 32 44 35 58 61 54 55 55 62 53 47 65
23 326 290 323 323 336 338 311 251 247 264 264 283 248 303 280 350 10 5 26 24 4 23 20 19 8 7 356 9 8 14 25 25 45 55 66 78 82 81 79 77 84 106
175 283 310 339 332 349 343 5 11 352 274 274 312 360 357 266 11 4 2 6 26 17 24 12 8 12 11 8 6 7 10 3 351 71 89 98 117 119 131 126 123 91 96
215 318 332 325 335 336 23 33 34 35 18 9 21 11 358 18 21 13 7 14 13 17 11 6 5 357 357 5 4 1 1 355 11 139 144 151 146 142 143 159 181 144 142
207 279 287 346 352 6 128 66 67 51 25 24 342 343 353 350 4 29 10 17 5 6 353 358 355 356 6 9 358 359 2 359 343 349 327 211 194 169 190 199 188 196 182
229 258 292 317 60 17 8 352 359 67 67 91 3 347 341 358 11 6 358 354 358 358 346 352 345 349 12 18 1 359 358 357 351 346 346 335 287 192 190 187 194 216 212
257 243 281 342 1 72 22 14 31 218 284 314 330 354 318 65 29 3 360 354 355 352 349 350 346 352 5 4 12 5 0 344 338 331 334 331 332 178 207 182 203 213 203
283 181 215 129 76 59 60 53 47 36 24 6 9 7 10 42 39 5 346 348 343 350 354 358 351 4 36 12 357 358 351 340 332 325 321 319 323 251 173 169 203 211 210
294 183 159 187 145 108 59 60 56 58 18 360 9 358 3 27 353 341 329 304 317 1 19 12 8 13 32 11 356 338 343 334 314 304 311 317 322 337 251 206 204 215 220
270 189 193 175 169 166 188 177 131 115 105 11 348 351 352 333 315 306 304 311 321 36 112 33 18 45 17 7 351 345 355 335 314 293 299 283 286 297 298 212 205 210 221
16 198 188 189 197 208 311 104 18 344 336 52 2 342 333 327 340 336 339 351 357 323 344 355 69 43 16 5 3 354 340 328 319 302 294 263 265 281 281 262 212 220 233
274 206 198 176 130 130 119 85 8 338 322 58 1 354 333 333 345 7 19 12 15 9 19 19 56 39 15 2 358 347 336 332 328 313 301 290 290 300 299 294 302 201 231